Home > Weather > Kalispell > Past weeks

Flag for U.S.A. Weather for the Past 2 Weeks in Kalispell, Montana, U.S.A.

Now
31 °F

Clear.


Feels Like: 31 °F
Forecast: 28 / 42 °F
Wind: No wind

Location: Kalispell - Glacier Park International

Current Time: Feb 9, 2016 at 8:09:03 PM

Latest Report: Feb 9, 2016 at 6:55 PM


Visibility: 10 mi

Pressure: 30.41 "Hg (27.16 "Hg at 902m altitude)

Humidity: 85%

Dew point: 27 °F

Location of KalispellLocation

Historic Weather in Kalispell — Graph

°F

Kalispell Temperature Yesterday

Maximum temperature yesterday: 41 °F (at 4:55 PM)
Minimum temperature yesterday: 26 °F (at 11:55 PM)
Average temperature yesterday: 33 °F

High & Low Weather Summary for the Past Weeks

 TemperatureHumidityPressure
High44 °F (Feb 9, 2:55 PM)100% (Jan 27, 7:55 PM)30.74 "Hg (Jan 27, 7:55 PM)
Low0 °F (Feb 3, 6:55 AM)36% (Feb 6, 3:55 PM)29.56 "Hg (Jan 29, 6:04 PM)
Average29 °F85%30.23 "Hg
* Reported Jan 25 5:55 PM — Feb 9 5:55 PM, Kalispell, Weather by CustomWeather, © 2016

Note: Actual official high and low records may vary slightly from our data, if they occured in-between our weather recording intervals... More about our weather records

Advertising

Kalispell Weather History for the Previous 24 Hours

 ConditionsComfort  
Time TempWeatherWind HumidityBarometerVisibility
5:55 PM
Tue, Feb 9
35 °FClear.No wind75%30.40 "Hg10 mi
4:55 PM42 °FSunny.No wind60%30.40 "Hg10 mi
3:55 PM40 °FSunny.No wind68%30.42 "Hg10 mi
2:55 PM44 °FSunny.No wind55%30.43 "Hg10 mi
1:55 PM41 °FSunny.No wind60%30.47 "Hg10 mi
12:55 PM37 °FSunny.No wind70%30.52 "Hg10 mi
11:55 AM34 °FSunny.No wind76%30.55 "HgN/A
10:55 AM30 °FSunny.No wind79%30.58 "Hg10 mi
9:55 AM25 °FSunny.No wind88%30.60 "Hg9 mi
8:55 AM20 °FSunny.No wind89%30.61 "Hg10 mi
7:55 AM18 °FIce fog.No wind88%30.62 "Hg4 mi
6:55 AM17 °FClear.No wind92%30.62 "Hg9 mi
5:55 AM18 °FClear.No wind96%30.62 "Hg10 mi
4:55 AM19 °FClear.No wind92%30.61 "Hg10 mi
3:55 AM20 °FIce fog.No wind96%30.62 "Hg4 mi
2:55 AM22 °FClear.No wind92%30.62 "Hg9 mi
1:55 AM23 °FClear.No wind92%30.62 "Hg10 mi
12:55 AM22 °FClear.No wind96%30.63 "Hg10 mi
11:55 PM
Mon, Feb 8
26 °FPassing clouds.No wind88%30.62 "Hg10 mi
10:55 PM27 °FOvercast.No wind89%30.63 "Hg10 mi
9:55 PM29 °FClear.No wind82%30.62 "Hg10 mi
8:55 PM31 °FPassing clouds.No wind82%30.62 "Hg10 mi
Weather by CustomWeather, © 2016

See weather overviewHow to use our weather pages